Mojave, CA

1:52 PM PDT on September 20, 2019 (GMT -0700)
Mojave

Weather History for KMHV - August, 2019

Change the Weather History Date:

Monday, August 19, 2019

  Actual Average Record
Temperature  
Mean Temperature 80 °F -  
Max Temperature 95 °F 93 °F 104 °F (1992)
Min Temperature 66 °F 64 °F 53 °F (1976)
Cooling Degree Days 16    
Growing Degree Days 30 (Base 50)    
Moisture  
Dew Point 39 °F    
Average Humidity 24    
Maximum Humidity 38    
Minimum Humidity 11    
Precipitation  
Precipitation 0.00 in - - ()
Sea Level Pressure  
Sea Level Pressure 29.97 in    
Wind  
Wind Speed 10 mph (WSW)    
Max Wind Speed 21 mph    
Max Gust Speed 26 mph    
Visibility 10 miles    
Events      
Averages and records for this station are not official NWS values.
T = Trace of Precipitation, MM = Missing Value Source: NWS Daily Summary

Daily Weather History Graph

Daily Weather History Graph

Search for Another Location

Airport or City:

Astronomy

Aug. 19, 2019 Rise Set
Actual Time 6:15 AM PDT 7:36 PM PDT
Civil Twilight 5:48 AM PDT 8:02 PM PDT
Nautical Twilight 5:17 AM PDT 8:34 PM PDT
Astronomical Twilight 4:43 AM PDT 9:07 PM PDT
Moon 10:08 PM PDT (8/19) 9:53 AM PDT (8/19)
Length of Visible Light 14h 14m
Length of Day
13h 20m
Waning Gibbous, 84% of the Moon is Illuminated
Aug 19
Waning Gibbous
Aug 23
Last Quarter
Aug 30
New
Sep 5
First Quarter
Sep 13
Full

Hourly Weather History & Observations

Time (PDT) Temp. Dew Point Humidity Pressure Visibility Wind Dir Wind Speed Gust Speed Precip Events Conditions
12:00 AM 75.2 °F 42.8 °F 31% 29.95 in 10.0 mi WSW 12.7 mph - N/A   Clear
12:40 AM 75.2 °F 42.8 °F 31% 29.95 in 10.0 mi SW 10.4 mph - N/A   Clear
1:00 AM 73.4 °F 42.8 °F 33% 29.94 in 10.0 mi WSW 11.5 mph - N/A   Clear
1:20 AM 73.4 °F 42.8 °F 33% 29.95 in 10.0 mi SW 8.1 mph - N/A   Clear
1:40 AM 73.4 °F 42.8 °F 33% 29.95 in 10.0 mi SW 9.2 mph - N/A   Clear
2:00 AM 73.4 °F 42.8 °F 33% 29.95 in 10.0 mi WSW 9.2 mph - N/A   Clear
2:20 AM 73.4 °F 42.8 °F 33% 29.95 in 10.0 mi WSW 9.2 mph - N/A   Clear
2:40 AM 71.6 °F 42.8 °F 35% 29.95 in 10.0 mi WSW 9.2 mph - N/A   Clear
3:00 AM 71.6 °F 42.8 °F 35% 29.95 in 10.0 mi WSW 6.9 mph - N/A   Clear
3:20 AM 69.8 °F 42.8 °F 38% 29.95 in 10.0 mi WSW 5.8 mph - N/A   Clear
3:40 AM 69.8 °F 42.8 °F 38% 29.95 in 10.0 mi WSW 9.2 mph - N/A   Clear
4:00 AM 71.6 °F 42.8 °F 35% 29.95 in 10.0 mi WSW 6.9 mph - N/A   Partly Cloudy
4:20 AM 69.8 °F 41.0 °F 35% 29.95 in 10.0 mi WSW 8.1 mph - N/A   Clear
4:40 AM 69.8 °F 41.0 °F 35% 29.96 in 10.0 mi West 8.1 mph - N/A   Clear
5:00 AM 68.0 °F 39.2 °F 35% 29.96 in 10.0 mi WSW 8.1 mph - N/A   Clear
5:20 AM 68.0 °F 37.4 °F 33% 29.96 in 10.0 mi WSW 10.4 mph - N/A   Clear
5:40 AM 68.0 °F 35.6 °F 30% 29.96 in 10.0 mi WSW 9.2 mph - N/A   Clear
6:00 AM 68.0 °F 33.8 °F 28% 29.96 in 8.0 mi WSW 9.2 mph - N/A   Clear
6:20 AM 66.2 °F 33.8 °F 30% 29.97 in 10.0 mi West 8.1 mph - N/A   Clear
6:40 AM 68.0 °F 33.8 °F 28% 29.98 in 10.0 mi WSW 8.1 mph - N/A   Clear
7:00 AM 69.8 °F 33.8 °F 27% 29.98 in 10.0 mi West 6.9 mph - N/A   Clear
7:20 AM 73.4 °F 33.8 °F 23% 29.98 in 10.0 mi West 6.9 mph - N/A   Clear
7:40 AM 75.2 °F 33.8 °F 22% 29.98 in 10.0 mi WSW 8.1 mph - N/A   Clear
8:00 AM 78.8 °F 33.8 °F 20% 29.98 in 10.0 mi WSW 6.9 mph - N/A   Clear
8:20 AM 80.6 °F 33.8 °F 18% 29.99 in 10.0 mi SW 4.6 mph - N/A   Clear
8:40 AM 80.6 °F 35.6 °F 20% 29.99 in 10.0 mi Calm Calm - N/A   Clear
9:00 AM 82.4 °F 37.4 °F 20% 29.99 in 10.0 mi Calm Calm - N/A   Clear
9:20 AM 84.2 °F 37.4 °F 19% 29.99 in 10.0 mi Calm Calm - N/A   Clear
9:40 AM 84.2 °F 37.4 °F 19% 30.00 in 10.0 mi Calm Calm - N/A   Clear
10:00 AM 84.2 °F 41.0 °F 22% 30.00 in 10.0 mi SSW 9.2 mph - N/A   Clear
10:20 AM 86.0 °F 41.0 °F 20% 30.00 in 10.0 mi SSW 9.2 mph - N/A   Clear
10:40 AM 87.8 °F 39.2 °F 18% 30.00 in 10.0 mi South 13.8 mph - N/A   Clear
11:00 AM 87.8 °F 37.4 °F 17% 30.00 in 10.0 mi SW 8.1 mph 15.0 mph N/A   Clear
11:20 AM 87.8 °F 37.4 °F 17% 30.00 in 10.0 mi South 13.8 mph - N/A   Clear
11:40 AM 89.6 °F 35.6 °F 15% 30.00 in 10.0 mi SW 10.4 mph - N/A   Clear
12:00 PM 89.6 °F 33.8 °F 14% 29.99 in 10.0 mi South 12.7 mph - N/A   Clear
12:20 PM 89.6 °F 33.8 °F 14% 29.99 in 10.0 mi South 9.2 mph 16.1 mph N/A   Clear
12:40 PM 91.4 °F 33.8 °F 13% 29.99 in 10.0 mi South 12.7 mph 18.4 mph N/A   Clear
1:00 PM 91.4 °F 32.0 °F 12% 29.98 in 10.0 mi South 12.7 mph - N/A   Clear
1:20 PM - - N/A% 29.97 in 10.0 mi SW 12.7 mph - N/A   Unknown
1:40 PM 93.2 °F 32.0 °F 11% 29.97 in 10.0 mi SW 8.1 mph 19.6 mph N/A   Unknown
2:00 PM 93.2 °F 32.0 °F 11% 29.97 in 10.0 mi South 15.0 mph - N/A   Clear
2:20 PM 93.2 °F 32.0 °F 11% 29.97 in 10.0 mi SSW 11.5 mph 21.9 mph N/A   Clear
2:40 PM 95.0 °F 32.0 °F 11% 29.96 in 10.0 mi SSW 15.0 mph - N/A   Clear
3:00 PM 93.2 °F 32.0 °F 11% 29.96 in 10.0 mi SSW 16.1 mph 24.2 mph N/A   Clear
3:20 PM 93.2 °F 32.0 °F 11% 29.95 in 10.0 mi SSW 15.0 mph 21.9 mph N/A   Clear
3:40 PM 93.2 °F 32.0 °F 11% 29.94 in 10.0 mi SSW 17.3 mph 24.2 mph N/A   Clear
4:00 PM 93.2 °F 32.0 °F 11% 29.94 in 10.0 mi SSW 12.7 mph 23.0 mph N/A   Clear
4:20 PM 93.2 °F 32.0 °F 11% 29.94 in 10.0 mi SW 17.3 mph - N/A   Clear
4:40 PM 93.2 °F 33.8 °F 12% 29.94 in 10.0 mi SSW 17.3 mph 24.2 mph N/A   Unknown
5:00 PM 93.2 °F 37.4 °F 14% 29.94 in 10.0 mi SSW 19.6 mph 26.5 mph N/A   Unknown
5:20 PM 93.2 °F 39.2 °F 15% 29.94 in 10.0 mi SSW 20.7 mph 26.5 mph N/A   Clear
5:40 PM 91.4 °F 41.0 °F 17% 29.94 in 10.0 mi West 12.7 mph 20.7 mph N/A   Clear
6:00 PM - - N/A% - 10.0 mi North - - N/A   Unknown
6:40 PM 87.8 °F 42.8 °F 21% 29.93 in 10.0 mi West 17.3 mph - N/A   Clear
7:00 PM 86.0 °F 44.6 °F 23% 29.93 in 10.0 mi WNW 15.0 mph - N/A   Clear
7:20 PM 84.2 °F 44.6 °F 25% 29.94 in 10.0 mi West 16.1 mph - N/A   Clear
7:40 PM 82.4 °F 44.6 °F 26% 29.94 in 10.0 mi West 17.3 mph - N/A   Clear
8:00 PM 82.4 °F 44.6 °F 26% 29.94 in 10.0 mi WNW 18.4 mph 24.2 mph N/A   Clear
8:20 PM 80.6 °F 44.6 °F 28% 29.95 in 10.0 mi West 17.3 mph - N/A   Clear
8:40 PM 80.6 °F 46.4 °F 30% 29.95 in 10.0 mi SW 18.4 mph 24.2 mph N/A   Clear
9:00 PM 78.8 °F 46.4 °F 32% 29.96 in 10.0 mi West 13.8 mph 20.7 mph N/A   Clear
9:20 PM 78.8 °F 44.6 °F 30% 29.96 in 10.0 mi WNW 12.7 mph 21.9 mph N/A   Clear
9:40 PM 78.8 °F 44.6 °F 30% 29.97 in 10.0 mi WNW 15.0 mph 25.3 mph N/A   Clear
10:00 PM 78.8 °F 42.8 °F 28% 29.97 in 10.0 mi West 15.0 mph 20.7 mph N/A   Clear
10:20 PM 78.8 °F 42.8 °F 28% 29.98 in 10.0 mi West 8.1 mph 16.1 mph N/A   Clear
10:40 PM 78.8 °F 42.8 °F 28% 29.98 in 10.0 mi West 10.4 mph 17.3 mph N/A   Clear
11:00 PM 78.8 °F 42.8 °F 28% 29.98 in 10.0 mi WNW 12.7 mph - N/A   Clear
11:20 PM 78.8 °F 42.8 °F 28% 29.99 in 10.0 mi WNW 10.4 mph - N/A   Clear
11:40 PM 77.0 °F 42.8 °F 29% 29.98 in 10.0 mi North - - N/A   Clear